www.pogodaiklimat.ru

Погода и климат >> Архив погоды >> Украина >> Львов


АРХИВ ПОГОДЫ в Львове

Время (UTC), дата Ветер
(напр.,м/с)
 
Видим.   Явления Облачность Т
(С)
Тd
(С)
f
(%)
Тe
(С)
Тes
(С)
Комфортность P
(гПа)
Po
(гПа)
Тmin
(С)
Tmax
(С)
R
(мм)
R24
(мм)
S
(см)
09 12.06 ЮВ 4 10 км 3/0
[Ci fib]
+27.9 +18.6 57 +33 +43 очень
душно
1015.2 979.1
12 12.06 ЮВ 4 10 км 5/5 1200 м
[Cu med, cong]
+29.5 +15.3 42 +32 +37 душно 1014.1 978.1
15 12.06 ЮВ 4 10 км в посл. час гроза 6/6 1300 м
[Cb calv]
+28.1 +17.1 51 +32 +34 душно 1013.7 977.6
18 12.06 штиль 0 10 км {гроза} 6/0
[Ci fib]
+24.3 +16.6 62 +28 +28 душно 1014.5 977.9 +29.8
21 12.06 штиль 0 10 км 3/0
[Ci fib]
+18.5 +15.8 84 +19 +19 тепло 1015.5 978.2
00 13.06 ЮВ 2 10 км ясно +16.5 +15.3 93 +17 +17 тепло 1016.2 978.6
03 13.06 ЮВ 1 10 км ясно +16.1 +14.9 93 +17 +17 тепло 1016.0 978.4
06 13.06 ЮВ 3 10 км ясно +23.8 +18.5 72 +28 +34 душно 1015.7 979.1 +15.4
09 13.06 Ю 4 10 км 1/1 1500 м
[Cu hum]
+28.2 +18.1 54 +33 +43 очень
душно
1015.6 979.5
12 13.06 ЮВ 5 10 км 3/3 1500 м
[Cu hum]
+29.7 +16.9 46 +33 +39 душно 1015.4 979.3
15 13.06 Ю 4 10 км 3/0
[Ac trans]
+29.3 +16.1 45 +32 +36 душно 1014.4 978.4
18 13.06 В 3 10 км ясно +26.3 +17.6 59 +31 +31 душно 1014.9 978.6 +30.1
21 13.06 ЮВ 2 10 км 3/0
[Ci fib]
+20.7 +16.4 76 +25 +25 комфорт 1016.4 979.3
00 14.06 ЮВ 3 10 км 4/0
[Ci fib]
+19.1 +15.9 82 +21 +21 комфорт 1016.7 979.4
03 14.06 ЮВ 2 10 км ясно +17.1 +16.1 94 +17 +18 тепло 1017.3 979.7
06 14.06 Ю 2 10 км ясно +23.3 +17.9 72 +29 +36 душно 1017.3 980.5 +16.7
09 14.06 ЮЗ 2 10 км 3/0
[Ci fib]
+28.6 +18.4 54 +33 +49 очень
душно
1017.3 981.2
12 14.06 З 2 10 км 3/3 1000 м
[Cu hum]
+30.9 +17.2 44 +35 +46 очень
душно
1016.7 980.8
15 14.06 В 4 10 км 6/4 1000 м
[Cb calv Ac trans]
+28.4 +19.2 57 +34 +36 очень
душно
1016.9 980.8
18 14.06 СВ 3 10 км {гроза} 6/4 1000 м
[Cb calv Ac trans]
+25.0 +13.4 49 +27 +27 жарко 1018.0 981.4 +31.7
21 14.06 нст 1 10 км 8/0
[As trans]
+19.8 +14.9 73 +23 +23 комфорт 1019.0 981.7
00 15.06 штиль 0 10 км 4/0
[Ac trans]
+17.2 +15.0 87 +17 +17 тепло 1018.4 980.8
03 15.06 штиль 0 10 км 3/0
[Ac trans]
+15.7 +14.3 91 +15 +16 тепло 1018.4 980.6
06 15.06 штиль 0 10 км ясно +24.5 +18.9 71 +29 +38 душно 1016.7 980.1 +15.4
09 15.06 ЮВ 2 10 км ясно +29.2 +18.6 53 +34 +51 опасность
солнечного
удара
1015.7 979.7
12 15.06 Ю 4 10 км ясно +30.4 +15.9 42 +33 +44 душно 1014.4 978.5
15 15.06 ЮВ 3 10 км 1/1 1000 м
[Cu hum]
+30.6 +16.6 43 +34 +38 очень
душно
1013.1 977.3
18 15.06 ЮВ 3 10 км ясно +26.9 +18.5 60 +32 +32 очень
душно
1013.0 976.8 +31.0
21 15.06 ЮВ 3 10 км 3/0
[Ci fib]
+20.6 +17.9 85 +25 +25 комфорт 1013.8 976.8
00 16.06 ЮВ 2 10 км 3/0
[Ci fib]
+18.9 +17.1 89 +21 +21 комфорт 1013.5 976.3
03 16.06 штиль 0 10 км 3/0
[Ci fib]
+17.9 +16.6 92 +18 +18 тепло 1013.4 976.1
06 16.06 ЮЗ 2 10 км 3/0
[Ci fib]
+23.9 +17.2 66 +28 +34 душно 1013.1 976.5 +17.3
09 16.06 Ю 2 10 км 3/0
[Ci fib]
+27.6 +20.5 65 +34 +49 очень
душно
1012.6 976.6
12 16.06 З 4 10 км 4/4 1000 м
[Cu med, cong]
+29.9 +21.3 60 +38 +44 очень
душно
1011.9 976.2
15 16.06 СЗ 7 10 км в посл. час гроза 8/8 1300 м
[Cb calv]
+29.4 +20.3 58 +36 +36 очень
душно
1011.5 975.7
18 16.06 СВ 5 8000 м гроза, ливневой дождь 9/9 1140 м
[Cb calv]
+21.5 +20.0 91 +27 +27 душно 1014.4 977.6 +31.3 12
21 16.06 З 5 10 км гроза, ливневой дождь 10/10 720 м
[Cb calv]
+19.4 +17.3 88 +21 +21 комфорт 1017.0 979.8
00 17.06 СЗ 1 10 км {гроза, ливн. осадки} 9/5 1380 м
[Cb calv Ac trans]
+19.0 +17.9 93 +22 +22 комфорт 1016.0 978.8
03 17.06 СЗ 3 10 км 10/10 800 м
[Sc]
+18.2 +17.2 94 +19 +19 тепло 1017.4 980.0
06 17.06 С 4 9000 м гроза, ливневой дождь 10/10 700 м
[Cb calv]
+16.9 +16.2 96 +16 +16 по сезону 1018.6 981.0 +16.7 7
09 17.06 СЗ 5 10 км {гроза, ливн. осадки} 8/3 600 м
[Cu hum Ac trans]
+20.3 +15.8 75 +23 +26 комфорт 1019.1 981.9
12 17.06 СЗ 5 10 км {гроза, ливн. осадки} 6/3 600 м
[Cu hum Ci fib]
+22.9 +15.5 63 +27 +32 душно 1018.6 981.7
15 17.06 С 3 10 км 9/9 1080 м
[Sc]
+23.0 +16.1 65 +27 +28 душно 1017.9 981.0
18 17.06 С 4 10 км 9/9 1440 м
[Sc]
+20.2 +15.0 72 +23 +23 комфорт 1018.7 981.5 +24.3 2
21 17.06 СВ 2 10 км 9/0
[Ac trans]
+18.5 +14.0 75 +20 +20 тепло 1019.7 982.2
00 18.06 СВ 3 10 км 8/0
[Ac trans]
+18.3 +14.0 76 +19 +19 тепло 1019.7 982.2
03 18.06 СВ 3 10 км 9/9 1020 м
[Sc]
+17.5 +14.4 82 +18 +18 тепло 1019.6 982.0
06 18.06 В 3 10 км 10/10 900 м
[Sc]
+18.2 +15.2 83 +19 +19 тепло 1020.4 982.8 +17.4
09 18.06 СВ 3 10 км 6/3 600 м
[Cu hum Ci]
+21.8 +15.5 67 +25 +34 комфорт 1019.7 982.6
12 18.06 В 3 10 км 9/6 1300 м
[Cu Sc Ci]
+23.5 +17.3 68 +27 +32 душно 1018.4 981.6
15 18.06 СВ 4 10 км 9/6 1380 м
[Cu Sc Ci]
+23.4 +17.0 67 +29 +30 душно 1017.2 980.5
18 18.06 В 2 10 км 9/0
[Ac trans]
+22.7 +16.3 67 +27 +27 душно 1017.0 980.2 +24.2
21 18.06 штиль 0 10 км 8/0
[Ac trans]
+19.1 +17.8 92 +21 +21 комфорт 1017.7 980.4
00 19.06 В 2 10 км 3/0
[Ac trans]
+18.4 +16.6 89 +20 +20 тепло 1017.0 979.6
03 19.06 В 2 10 км 8/8 1170 м
[Sc]
+18.6 +16.4 87 +20 +20 тепло 1016.4 979.1
06 19.06 В 4 10 км 8/0
[Ac trans Cc]
+22.5 +17.2 72 +27 +30 душно 1015.6 978.8 +17.7

 

Местоположение метеостанции Львов (Львовская область, Украина): широта 49.82 долгота 23.95 высота над уровнем моря 323 м.

В архиве по умолчанию представлена погода в Львове за последнюю неделю. Архивные данные за месяц целиком и за предыдущие месяцы, начиная с января 2011 года, Вы можете получить, выбрав интересующий диапазон дат из раскрывающегося списка и нажав кнопку "Ввод!".


*Определитесь, кто Вы:
робот инопланетянин человек

Внимание! Время в таблицах - всемирное. Для получения местного времени необходимо прибавить поправку, которая равна 2 ч.

Смотрите также архив погоды в соседних городах и на ближайших метеорологических станциях:

Погода в Каменке-Бугской (Львовская область, Украина) (42 км)
Погода в Яворове (Львовская область, Украина) (43 км)
Погода в Межгорье (Закарпатская область, Украина) (48 км)
Погода в Раве-Русской (Львовская область, Украина) (53 км)
Погода в Мостиске (Львовская область, Украина) (57 км)
Погода в Дрогобыче (Львовская область, Украина) (61 км)
Погода в Стрые (Львовская область, Украина) (64 км)
Погода в Славском (Львовская область, Украина) (84 км)
Погода в Бережанах (Львовская область, Украина) (84 км)
Погода в Пшемысле (Польша) (86 км)

Пояснения к столбцам:

Ветер - указаны скорость ветра в м/с - средняя за 10 мин, порывы в срок и между сроками (в фигурных скобках) и направление, откуда дует ветер: С - северный, СВ - северо-восточный, В - восточный, ЮВ - юго-восточный, Ю - южный, ЮЗ - юго-западный, З - западный, СЗ - северо-западный.
Видимость - горизонтальная дальность видимости в метрах или километрах. При видимости от 1 до 10 км при отсутствии осадков обычно наблюдается дымка, при ухудшении видимости до 1 км и менее - туман. В сухую погоду видимость может ухудшаться дымом, пылью или мглою.
Явления - указаны атмосферные явления, наблюдавшиеся в срок или в последний час перед сроком; фигурными скобками обозначены явления, наблюдавшиеся между сроками (за 1-3 часа до срока); квадратными скобками обозначены град или гололедные отложения с указанием их диаметра в мм.
Облачность - указаны через наклонную черту общая и нижняя облачность в баллах и высота нижней границы облаков в метрах; квадратными скобками обозначены формы облаков: Ci - перистые, Cs - перисто-слоистые, Cc - перисто-кучевые, Ac - высококучевые, As - высокослоистые, Sc - слоисто-кучевые, Ns - слоисто-дождевые, Cu - кучевые, Cb - кучево-дождевые. Подробнее классификацию облаков см. в Атласе облаков (PDF).
T - Температура воздуха - температура, измеренная на высоте 2 м над землей.
Td - Температура точки росы - температура, при понижении до которой содержащийся в воздухе водяной пар достигнет насыщения.
f - Относительная влажность воздуха - влажноcть воздуха, измеренная на высоте 2 м над землей.
Te - Эффективная температура - температура, которую ощущает одетый по сезону человек в тени. Характеристика душности погоды. При расчете учитывается влияние влажности воздуха и скорости ветра на теплоощущения человека.
Tes - Эффективная температура на солнце - температура, которую ощущает человек, с поправкой на солнечный нагрев. Характеристика знойности погоды. Зависит от высоты солнца над горизонтом, облачности и скорости ветра. Ночью, в пасмурную погоду, а также при ветре 12 м/с и более поправка равна нулю.
P - Атмосферное давление - приведенное к уровню моря атмосферное давление.
Po - Атмосферное давление - измеренное на уровне метеостанции атмосферное давление.
Tmin - Минимальная температура - минимум температуры воздуха на высоте 2 м над землей.
Tmax - Максимальная температура - максимум температуры воздуха на высоте 2 м над землей.
R - Количество осадков - Количество выпавших осадков за период времени, мм. При наведении курсора мыши на число - период времени, за который выпало указанное количество осадков.
R24 - Количество осадков - Количество выпавших осадков за 24 часа, мм.
S - Снежный покров - Высота снежного покрова, см. При наведении курсора мыши на число - состояние снежного покрова и степень покрытия местности в баллах.